• In India
  • List of Countries
  • For 7 days
  • Water Temperature
  • Satellite Maps
  • Weather Map
  • Weather Widgets
  • user-avatar
    Login

    Hourly Weather Debki

    Today, 19 February, Tuesday

    Time Temperature Precipitation Wind Pressure Humidity
    00:00 +3°C° 0 mm 3 mps 741 mmHg 64%
    01:00 +3°C° 0 mm 3 mps 741 mmHg 64%
    02:00 +3°C° 0 mm 3 mps 741 mmHg 65%
    03:00 +3°C° 0 mm 3 mps 741 mmHg 66%
    04:00 +3°C° 0 mm 3 mps 741 mmHg 67%
    05:00 +2°C° 0 mm 3 mps 740 mmHg 67%
    06:00 +2°C° 0 mm 3 mps 740 mmHg 68%
    07:00 +2°C° 0 mm 3 mps 740 mmHg 69%
    08:00 +4°C° 0 mm 4 mps 740 mmHg 66%
    09:00 +5°C° 0 mm 4 mps 740 mmHg 62%
    10:00 +7°C° 0 mm 4 mps 740 mmHg 58%
    11:00 +8°C° 0 mm 4 mps 740 mmHg 58%
    12:00 +9°C° 0 mm 5 mps 740 mmHg 57%
    13:00 +10°C° 0 mm 5 mps 740 mmHg 56%
    14:00 +9°C° 0 mm 5 mps 740 mmHg 59%
    15:00 +10°C° 0 mm 4 mps 740 mmHg 62%
    16:00 +10°C° 0 mm 4 mps 739 mmHg 65%
    17:00 +8°C° 0.2 mm 4 mps 740 mmHg 71%
    18:00 +7°C° 0.2 mm 4 mps 740 mmHg 78%
    19:00 +6°C° 0.2 mm 4 mps 740 mmHg 84%
    20:00 +5°C° 0.1 mm 4 mps 740 mmHg 84%
    21:00 +5°C° 0.1 mm 4 mps 740 mmHg 85%
    22:00 +3°C° 0.1 mm 5 mps 740 mmHg 86%
    23:00 +3°C° 0 mm 5 mps 741 mmHg 85%

    Tomorrow, 20 February, Wednesday

    Time Temperature Precipitation Wind Pressure Humidity
    00:00 +3°C° 0 mm 5 mps 741 mmHg 83%
    01:00 +2°C° 0 mm 5 mps 741 mmHg 82%
    02:00 +2°C° 0 mm 5 mps 741 mmHg 83%
    03:00 +2°C° 0 mm 5 mps 741 mmHg 84%
    04:00 +2°C° 0 mm 5 mps 741 mmHg 84%
    05:00 +2°C° 0 mm 5 mps 742 mmHg 85%
    06:00 +1°C° 0 mm 5 mps 742 mmHg 85%
    07:00 +1°C° 0 mm 5 mps 742 mmHg 85%
    08:00 +2°C° 0 mm 5 mps 743 mmHg 81%
    09:00 +3°C° 0 mm 6 mps 743 mmHg 77%
    10:00 +4°C° 0 mm 6 mps 744 mmHg 73%
    11:00 +4°C° 0 mm 6 mps 744 mmHg 71%
    12:00 +5°C° 0 mm 6 mps 744 mmHg 68%
    13:00 +5°C° 0 mm 6 mps 744 mmHg 66%
    14:00 +6°C° 0 mm 5 mps 744 mmHg 66%
    15:00 +6°C° 0 mm 5 mps 744 mmHg 67%
    16:00 +6°C° 0 mm 4 mps 744 mmHg 68%
    17:00 +5°C° 0 mm 4 mps 744 mmHg 72%
    18:00 +5°C° 0 mm 3 mps 745 mmHg 76%
    19:00 +4°C° 0 mm 3 mps 745 mmHg 80%
    20:00 +4°C° 0 mm 3 mps 745 mmHg 80%
    21:00 +4°C° 0 mm 3 mps 745 mmHg 80%
    22:00 +4°C° 0 mm 3 mps 746 mmHg 79%
    23:00 +3°C° 0 mm 3 mps 746 mmHg 78%

    Day after tomorrow, 21 February, Thursday

    Time Temperature Precipitation Wind Pressure Humidity
    00:00 +3°C° 0 mm 3 mps 746 mmHg 77%
    01:00 +3°C° 0 mm 3 mps 746 mmHg 76%
    02:00 +3°C° 0 mm 3 mps 746 mmHg 76%
    03:00 +3°C° 0 mm 3 mps 746 mmHg 76%
    04:00 +3°C° 0 mm 3 mps 745 mmHg 76%
    05:00 +4°C° 0.1 mm 4 mps 745 mmHg 77%
    06:00 +4°C° 0.1 mm 4 mps 745 mmHg 78%
    07:00 +4°C° 0.1 mm 4 mps 745 mmHg 79%
    08:00 +5°C° 0.1 mm 5 mps 745 mmHg 76%
    09:00 +5°C° 0.1 mm 5 mps 745 mmHg 74%
    10:00 +5°C° 0.1 mm 6 mps 745 mmHg 71%
    11:00 +7°C° 0.1 mm 6 mps 745 mmHg 69%
    12:00 +7°C° 0.1 mm 6 mps 745 mmHg 67%
    13:00 +7°C° 0.1 mm 6 mps 745 mmHg 65%
    14:00 +7°C° 0.3 mm 6 mps 745 mmHg 69%
    15:00 +7°C° 0.3 mm 6 mps 745 mmHg 73%
    16:00 +5°C° 0.3 mm 6 mps 744 mmHg 77%
    17:00 +5°C° 0.5 mm 6 mps 745 mmHg 80%
    18:00 +5°C° 0.5 mm 6 mps 745 mmHg 84%
    19:00 +5°C° 0.5 mm 6 mps 745 mmHg 88%
    20:00 +5°C° 0.2 mm 6 mps 745 mmHg 89%
    21:00 +5°C° 0.2 mm 6 mps 745 mmHg 90%
    22:00 +6°C° 0.2 mm 5 mps 745 mmHg 90%
    23:00 +5°C° 0.1 mm 6 mps 746 mmHg 90%

    22 February, Friday

    Time Temperature Precipitation Wind Pressure Humidity
    00:00 +5°C° 0.1 mm 6 mps 746 mmHg 90%
    01:00 +5°C° 0.1 mm 6 mps 746 mmHg 90%
    02:00 +5°C° 0.2 mm 6 mps 746 mmHg 90%
    03:00 +5°C° 0.2 mm 7 mps 747 mmHg 89%
    04:00 +5°C° 0.2 mm 7 mps 747 mmHg 89%
    05:00 +5°C° 0.2 mm 7 mps 748 mmHg 89%
    06:00 +4°C° 0.2 mm 6 mps 748 mmHg 89%
    07:00 +4°C° 0.2 mm 6 mps 749 mmHg 89%
    08:00 +2°C° 0.1 mm 6 mps 750 mmHg 86%
    09:00 +1°C° 0.1 mm 5 mps 751 mmHg 84%
    10:00 0°C° 0.1 mm 5 mps 752 mmHg 81%
    11:00 0°C° 0 mm 5 mps 753 mmHg 76%
    12:00 0°C° 0 mm 4 mps 753 mmHg 72%
    13:00 0°C° 0 mm 4 mps 754 mmHg 67%
    14:00 0°C° 0 mm 4 mps 754 mmHg 64%
    15:00 0°C° 0 mm 4 mps 755 mmHg 60%
    16:00 0°C° 0 mm 4 mps 755 mmHg 57%
    17:00 0°C° 0 mm 3 mps 756 mmHg 60%
    18:00 -1°C° 0 mm 3 mps 756 mmHg 63%
    19:00 -2°C° 0 mm 2 mps 757 mmHg 66%
    20:00 -2°C° 0 mm 2 mps 758 mmHg 67%
    21:00 -2°C° 0 mm 2 mps 758 mmHg 68%
    22:00 -3°C° 0 mm 2 mps 758 mmHg 68%
    23:00 -1°C° 0 mm 1 mps 759 mmHg 68%

    23 February, Saturday

    Time Temperature Precipitation Wind Pressure Humidity
    00:00 -1°C° 0 mm 1 mps 759 mmHg 67%
    01:00 -1°C° 0 mm 1 mps 759 mmHg 67%
    02:00 -1°C° 0 mm 1 mps 759 mmHg 65%
    03:00 -1°C° 0 mm 1 mps 758 mmHg 64%
    04:00 -1°C° 0 mm 1 mps 758 mmHg 62%
    05:00 -1°C° 0 mm 1 mps 758 mmHg 60%
    06:00 -2°C° 0 mm 1 mps 758 mmHg 58%
    07:00 -2°C° 0 mm 1 mps 758 mmHg 56%
    08:00 -2°C° 0 mm 2 mps 758 mmHg 48%
    09:00 -1°C° 0 mm 2 mps 758 mmHg 40%
    10:00 +2°C° 0 mm 2 mps 758 mmHg 32%
    11:00 +3°C° 0 mm 2 mps 758 mmHg 29%
    12:00 +5°C° 0 mm 1 mps 758 mmHg 26%
    13:00 +6°C° 0 mm 1 mps 757 mmHg 24%
    14:00 +6°C° 0 mm 1 mps 757 mmHg 28%
    15:00 +6°C° 0 mm 1 mps 757 mmHg 32%
    16:00 +6°C° 0 mm 1 mps 756 mmHg 37%
    17:00 +4°C° 0 mm 0 mps 756 mmHg 39%
    18:00 +2°C° 0 mm 0 mps 755 mmHg 41%
    19:00 +1°C° 0 mm 0 mps 755 mmHg 43%
    20:00 +1°C° 0 mm 0 mps 755 mmHg 45%
    21:00 +2°C° 0 mm 1 mps 755 mmHg 47%
    22:00 +1°C° 0 mm 1 mps 755 mmHg 49%
    23:00 +1°C° 0 mm 1 mps 755 mmHg 51%

    24 February, Sunday

    Time Temperature Precipitation Wind Pressure Humidity
    00:00 +1°C° 0 mm 1 mps 755 mmHg 52%
    01:00 +1°C° 0 mm 1 mps 755 mmHg 53%
    02:00 +1°C° 0 mm 1 mps 755 mmHg 53%
    03:00 +1°C° 0 mm 1 mps 755 mmHg 54%
    04:00 -1°C° 0 mm 0 mps 755 mmHg 55%
    05:00 -1°C° 0 mm 0 mps 755 mmHg 55%
    06:00 -1°C° 0 mm 0 mps 755 mmHg 55%
    07:00 -1°C° 0 mm 0 mps 755 mmHg 55%
    08:00 +1°C° 0 mm 0 mps 755 mmHg 53%
    09:00 +2°C° 0 mm 0 mps 756 mmHg 51%
    10:00 +4°C° 0 mm 0 mps 756 mmHg 49%
    11:00 +5°C° 0 mm 0 mps 756 mmHg 51%
    12:00 +7°C° 0 mm 1 mps 756 mmHg 53%
    13:00 +7°C° 0 mm 1 mps 756 mmHg 56%
    14:00 +7°C° 0 mm 1 mps 755 mmHg 59%
    15:00 +7°C° 0 mm 1 mps 755 mmHg 62%
    16:00 +7°C° 0 mm 1 mps 755 mmHg 65%
    17:00 +6°C° 0 mm 1 mps 755 mmHg 70%
    18:00 +3°C° 0 mm 0 mps 755 mmHg 75%
    19:00 +2°C° 0 mm 0 mps 755 mmHg 80%
    20:00 +2°C° 0 mm 0 mps 754 mmHg 80%
    21:00 +2°C° 0 mm 0 mps 754 mmHg 81%
    22:00 +3°C° 0 mm 1 mps 754 mmHg 81%
    23:00 +3°C° 0 mm 1 mps 754 mmHg 82%
    Show more